Weather History for KFPR - November, 2012

Change the Weather History Date:

Friday, November 9, 2012

  Actual Average (KVRB) Record (KVRB)
Temperature  
Mean Temperature 62 °F 71 °F  
Max Temperature 72 °F 80 °F 86 °F (1989)
Min Temperature 52 °F 63 °F 45 °F (2010)
Degree Days  
Heating Degree Days 3 1  
Month to date heating degree days 1  
Since 1 July heating degree days 4  
Cooling Degree Days 0 7  
Month to date cooling degree days 68  
Year to date cooling degree days 3196  
Growing Degree Days 12 (Base 50)    
Moisture  
Dew Point 51 °F    
Average Humidity 66    
Maximum Humidity 90    
Minimum Humidity 51    
Precipitation  
Precipitation 0.00 in 0.13 in 2.06 in (1962)
Month to date precipitation 1.08  
Year to date precipitation 47.48  
Sea Level Pressure  
Sea Level Pressure 30.19 in    
Wind  
Wind Speed 7 mph (NNW)    
Max Wind Speed 12 mph    
Max Gust Speed 24 mph    
Visibility 10 miles    
Events      
T = Trace of Precipitation, MM = Missing Value Source: NWS Daily Summary

Daily Weather History Graph

Daily Weather History Graph

Search for Another Location

Airport or City:

Trip Planner

Search our weather history database for the weather conditions in past years. The results will help you decide how hot, cold, wet, or windy it might be!

Date:

Astronomy

Nov. 09, 2012 Rise Set
Actual Time 6:38 AM EST 5:32 PM EST
Civil Twilight 6:13 AM EST 5:56 PM EST
Nautical Twilight 5:45 AM EST 6:24 PM EST
Astronomical Twilight 5:18 AM EST 6:52 PM EST
Moon 1:59 AM EST (11/9) 2:23 PM EST (11/9)
Length of Visible Light 11h 43m
Length of Day
10h 54m
Waning Crescent, 23% of the Moon is Illuminated
Nov 9
Waning Crescent
Nov 13
New
Nov 20
First Quarter
Nov 28
Full
Dec 6
Last Quarter

Hourly Weather History & Observations

Time (EST) Temp. Dew Point Humidity Pressure Visibility Wind Dir Wind Speed Gust Speed Precip Events Conditions
12:53 AM 55.0 °F 45.0 °F 69% 30.14 in 10.0 mi NNW 6.9 mph - N/A   Clear
1:53 AM 55.9 °F 44.1 °F 64% 30.14 in 10.0 mi NNW 8.1 mph - N/A   Clear
2:53 AM 55.0 °F 44.1 °F 67% 30.14 in 10.0 mi NNW 6.9 mph - N/A   Clear
3:53 AM 53.1 °F 45.0 °F 74% 30.14 in 10.0 mi NW 5.8 mph - N/A   Clear
4:53 AM 52.0 °F 45.0 °F 77% 30.15 in 10.0 mi NW 6.9 mph - N/A   Clear
5:53 AM 53.1 °F 44.1 °F 71% 30.16 in 10.0 mi NNW 5.8 mph - N/A   Clear
6:53 AM 52.0 °F 45.0 °F 77% 30.18 in 10.0 mi NW 5.8 mph - N/A   Clear
7:53 AM 60.1 °F 48.9 °F 67% 30.20 in 10.0 mi North 6.9 mph - N/A   Clear
8:53 AM 66.0 °F 51.1 °F 59% 30.22 in 10.0 mi North 9.2 mph - N/A   Clear
9:53 AM 69.1 °F 51.1 °F 53% 30.23 in 10.0 mi North 11.5 mph 19.6 mph N/A   Clear
10:53 AM 71.1 °F 53.1 °F 53% 30.23 in 10.0 mi North 10.4 mph 16.1 mph N/A   Clear
11:53 AM 72.0 °F 53.1 °F 51% 30.22 in 10.0 mi North 11.5 mph 18.4 mph N/A   Scattered Clouds
12:53 PM 72.0 °F 53.1 °F 51% 30.20 in 10.0 mi North 10.4 mph 19.6 mph N/A   Clear
1:53 PM 72.0 °F 54.0 °F 53% 30.19 in 10.0 mi North 8.1 mph 18.4 mph N/A   Mostly Cloudy
2:53 PM 70.0 °F 54.0 °F 57% 30.18 in 10.0 mi North 10.4 mph 24.2 mph N/A   Mostly Cloudy
3:53 PM 69.1 °F 55.0 °F 61% 30.18 in 10.0 mi North 8.1 mph 18.4 mph N/A   Partly Cloudy
4:53 PM 70.0 °F 55.9 °F 61% 30.18 in 10.0 mi North 10.4 mph - N/A   Mostly Cloudy
5:53 PM 66.9 °F 55.0 °F 66% 30.18 in 10.0 mi North 6.9 mph - N/A   Mostly Cloudy
6:53 PM 66.0 °F 55.9 °F 70% 30.19 in 10.0 mi Calm Calm - N/A   Overcast
7:53 PM 64.0 °F 57.0 °F 78% 30.20 in 10.0 mi NW 3.5 mph - N/A   Overcast
8:53 PM 66.0 °F 53.1 °F 63% 30.21 in 10.0 mi Calm Calm - N/A   Mostly Cloudy
9:53 PM 59.0 °F 55.0 °F 87% 30.22 in 10.0 mi Calm Calm - N/A   Clear
10:53 PM 60.1 °F 57.0 °F 90% 30.22 in 10.0 mi Calm Calm - N/A   Overcast
11:53 PM 66.0 °F 50.0 °F 56% 30.21 in 10.0 mi Calm Calm - N/A   Mostly Cloudy